Regional Weather Roundup
Issued by NWS

Home | Current Version | Previous Version | Graphics & Text | Print | Product List | Glossary On
Versions: 1 2 3 4 5 6 7 8 9 10 11 12 13 14 15 16 17 18 19 20 21 22 23 24 25 26 27 28 29 30 31 32 33 34 35 36 37 38 39 40 41 42 43 44 45 46 47 48 49 50
000
ASUS43 KDTX 260610
RWRMI
MICHIGAN HOURLY REGIONAL WEATHER ROUNDUP
NATIONAL WEATHER SERVICE DETROIT/PONTIAC MI
200 AM EDT MON JUN 26 2017

NOTE: "FAIR" INDICATES FEW OR NO CLOUDS BELOW 12,000 FEET WITH NO
SIGNIFICANT WEATHER AND/OR OBSTRUCTION TO VISIBILITY.

MIZ047>049-052>055-059>063-066>070-074>076-081>083-260700-
SOUTHEAST LOWER MICHIGAN

CITY           SKY/WX    TMP DP  RH WIND       PRES   REMARKS
ADRIAN         MOCLDY    56  46  69 CALM      30.06S
6HR MIN TEMP:  53; 6HR MAX TEMP:  69;

ALMA           MOCLDY    55  52  87 SW5       30.01S
ANN ARBOR      CLEAR     45  45 100 SW5       30.03F
BAD AXE        CLOUDY    55  55  97 CALM      29.99S
6HR MIN TEMP:  55; 6HR MAX TEMP:  63;

CARO           CLOUDY    56  55  94 CALM      29.99F
DETROIT CITY   CLEAR     59  47  64 W5        30.02F
6HR MIN TEMP:  59; 6HR MAX TEMP:  68;

DETROIT        PTCLDY    57  47  69 SW7       30.04S
6HR MIN TEMP:  56; 6HR MAX TEMP:  70;

FLINT          CLEAR     56  49  77 SW8       30.01F
6HR MIN TEMP:  56; 6HR MAX TEMP:  62;

GROSSE ILE     CLEAR     59  47  65 W5        30.03S
6HR MIN TEMP:  59; 6HR MAX TEMP:  69;

HILLSDALE      MOCLDY    54  45  71 W3        30.06S
HOWELL         CLEAR     54  46  72 W5        30.03S
6HR MIN TEMP:  54; 6HR MAX TEMP:  66;


CITY           SKY/WX    TMP DP  RH WIND       PRES   REMARKS
JACKSON        MOCLDY    55  48  77 SW6       30.04F
6HR MIN TEMP:  52; 6HR MAX TEMP:  67;

LAMBERTVILLE   PTCLDY    53  48  83 CALM      30.04F
6HR MIN TEMP:  53; 6HR MAX TEMP:  70;

LANSING        PTCLDY    57  48  72 W7        30.03F
6HR MIN TEMP:  57; 6HR MAX TEMP:  68;

LAPEER         MOCLDY    57  52  82 SW5       30.01S
6HR MIN TEMP:  57; 6HR MAX TEMP:  64; 6HR PCP:  0.06;

MASON          CLEAR     56  48  76 CALM      30.03F
MONROE         MOCLDY    54  48  81 W5        30.04S
MT. CLEMENS    PTCLDY    57  51  80 SW6       30.00F
6HR MIN TEMP:  57; 6HR MAX TEMP:  62; 6HR PCP: TRACE;

PONTIAC        CLEAR     55  50  83 W5        30.01S
6HR MIN TEMP:  55; 6HR MAX TEMP:  60; 6HR PCP: TRACE;

PORT HOPE        N/A     58  55  90 CALM      29.96F
6HR MIN TEMP:  58; 6HR MAX TEMP:  64;

PORT HURON     CLOUDY    57  52  82 CALM      30.01S
TRI CITIES     PTCLDY    58  55  90 SW6       30.00F
6HR MIN TEMP:  58; 6HR MAX TEMP:  63; 6HR PCP: TRACE;

MIDLAND        CLOUDY    58  52  78 SW3       29.99S
6HR MIN TEMP:  58; 6HR MAX TEMP:  64;

TROY           CLEAR     57  48  71 W5        30.04S
SAGINAW HB     CLOUDY    59  52  77 SW7       29.99F
$$
MIZ043>046-050>051-056>058-064>065-071>073-077>080-260700-
SOUTHWEST LOWER MICHIGAN

CITY           SKY/WX    TMP DP  RH WIND       PRES   REMARKS
BATTLE CREEK   PTCLDY    55  50  83 W8        30.05F
6HR MIN TEMP:  55; 6HR MAX TEMP:  67;

BENTON HARBOR  MOCLDY    62  50  64 W12G21    30.07F
6HR MIN TEMP:  61; 6HR MAX TEMP:  68;

BIG RAPIDS     CLOUDY    54  51  88 W8        30.00S
6HR MIN TEMP:  52; 6HR MAX TEMP:  62;

COLDWATER      CLOUDY    57  49  74 SW3       30.07S
6HR MIN TEMP:  55; 6HR MAX TEMP:  68;

FREMONT        FAIR      53  53  99 W5        30.02S
HOLLAND        MOCLDY    60  53  77 W9G17     30.05F
6HR MIN TEMP:  60; 6HR MAX TEMP:  67;

GRAND RAPIDS   CLEAR     56  53  90 W8        30.03S
6HR MIN TEMP:  56; 6HR MAX TEMP:  66;

IONIA          FAIR      54  49  83 SW6       30.02S
6HR MIN TEMP:  54; 6HR MAX TEMP:  66;

KALAMAZOO      CLEAR     55  48  77 SW6       30.06S
6HR MIN TEMP:  53; 6HR MAX TEMP:  68;

LUDINGTON      CLOUDY    58  53  84 W8G18     30.00S
6HR MIN TEMP:  53; 6HR MAX TEMP:  62;

MARSHALL       MOCLDY    56  49  78 SW5       30.05S
6HR MIN TEMP:  53; 6HR MAX TEMP:  67;

MOUNT PLEASANT CLEAR     56  51  85 W5        29.99S
6HR MIN TEMP:  56; 6HR MAX TEMP:  64;

MUSKEGON       CLOUDY    60  54  80 W13G21    30.03F
6HR MIN TEMP:  58; 6HR MAX TEMP:  66; 6HR PCP: TRACE;

SOUTH HAVEN    CLOUDY    62  53  73 W10G17    30.06S
$$
MIZ016>042-260700-
NORTHERN LOWER MICHIGAN

CITY           SKY/WX    TMP DP  RH WIND       PRES   REMARKS
ALPENA         LGT RAIN  56  56 100 SW3       29.96F
6HR MIN TEMP:  56; 6HR MAX TEMP:  60; 6HR PCP:  0.61;

BEAVER ISLAND  LGT RAIN  54  54  99 CALM      29.95F
6HR MIN TEMP:  54; 6HR MAX TEMP:  59;

BELLAIRE       MOCLDY    52  50  95 CALM      29.97S
6HR MIN TEMP:  50; 6HR MAX TEMP:  62;

CADILLAC       CLOUDY    53  51  95 W5        29.98F
CHARLEVOIX     CLOUDY    56  55  98 CALM      29.98F
6HR MIN TEMP:  56; 6HR MAX TEMP:  61;

FRANKFORT      CLOUDY    58  53  83 W7        29.96F
GAYLORD        CLEAR     52  48  86 CALM      29.97F
6HR MIN TEMP:  50; 6HR MAX TEMP:  63;

GRAYLING       CLOUDY    52  51  96 CALM      29.99S
6HR MIN TEMP:  50; 6HR MAX TEMP:  63;

HARBOR SPRINGS CLOUDY    55  55 100 CALM      29.96S
HOUGHTON LAKE  MOCLDY    57  52  83 W3        29.99S
6HR MIN TEMP:  54; 6HR MAX TEMP:  61; 6HR PCP: TRACE;

MANISTEE       CLOUDY    57  54  89 W12       29.99S
OSCODA         CLOUDY    57  56  94 SW8       29.96S
6HR MIN TEMP:  57; 6HR MAX TEMP:  59;

PELLSTON       MOCLDY    51  49  92 CALM      29.96F
6HR MIN TEMP:  51; 6HR MAX TEMP:  63;

ROGERS CITY    LGT RAIN  56  54  94 W5        29.97S
TRAVERSE CITY  CLOUDY    58  53  84 SW3       29.95F
6HR MIN TEMP:  55; 6HR MAX TEMP:  64;

$$
MIZ007>008-015-260700-
EASTERN UPPER MICHIGAN

CITY           SKY/WX    TMP DP  RH WIND       PRES   REMARKS
KINROSS        MOCLDY    52  50  93 N3        29.96S
6HR MIN TEMP:  52; 6HR MAX TEMP:  59;

MACKINAC ISLAN CLOUDY    55  55 100 W3        29.95F
6HR MIN TEMP:  55; 6HR MAX TEMP:  57;

NEWBERRY       CLOUDY    51  50  97 N5        29.96S
6HR MIN TEMP:  51; 6HR MAX TEMP:  58;

S. S. MARIE    MOCLDY    53  51  93 CALM      29.96S
6HR MIN TEMP:  52; 6HR MAX TEMP:  60; 6HR PCP: TRACE;

MUNISING         N/A     52  52 100 N9        29.96F
6HR MIN TEMP:  50; 6HR MAX TEMP:  52; 6HR PCP:  0.06;

$$
MIZ004>006-011>014-085-260700-
CENTRAL UPPER MICHIGAN

CITY           SKY/WX    TMP DP  RH WIND       PRES   REMARKS
MANISTIQUE     DRIZZLE   51  48  90 NW5       29.95S
6HR MIN TEMP:  51; 6HR MAX TEMP:  62; 6HR PCP:  0.05;

ESCANABA       CLOUDY    53  52  96 NW3       29.96F
6HR MIN TEMP:  53; 6HR MAX TEMP:  58; 6HR PCP:  0.03;

MENOMINEE      CLEAR     52  50  93 VRB3      29.99F
6HR MIN TEMP:  52; 6HR MAX TEMP:  60; 6HR PCP: TRACE;

SAWYER-GWINN   DRIZZLE   50  49  97 W3        29.97S
6HR MIN TEMP:  50; 6HR MAX TEMP:  53; 6HR PCP:  0.41;

$$
MIZ001>003-009>011-084-260700-
WESTERN UPPER MICHIGAN

CITY           SKY/WX    TMP DP  RH WIND       PRES   REMARKS
IRON MOUNTAIN  CLOUDY    50  46  86 NW9       29.97F
6HR MIN TEMP:  50; 6HR MAX TEMP:  56; 6HR PCP:  0.01;

HOUGHTON       LGT RAIN  47  45  93 NW6       29.98F
6HR MIN TEMP:  47; 6HR MAX TEMP:  56; 6HR PCP:  0.49;

COPPER HARBOR    N/A     48  48 100 N5        29.99S
6HR MIN TEMP:  47; 6HR MAX TEMP:  53; 6HR PCP:  0.06;

IRONWOOD       LGT RAIN  46  46 100 NW9       30.05S FOG
6HR MIN TEMP:  46; 6HR MAX TEMP:  52;

$$

ABBREVIATIONS USED IN REMARKS
   TC - TEMPERATURE IN CELSIUS
  WCI - WIND CHILL INDEX
   HX - HEAT INDEX
  VSB - VISIBILITY





USA.gov is the U.S. government's official web portal to all federal, state and local government web resources and services.